Change the Weather History Date:

Friday, May 31, 2013

  Actual Average (KMSP) Record (KMSP)
Temperature  
Mean Temperature 68 °F 64 °F  
Max Temperature 78 °F 74 °F 106 °F (1934)
Min Temperature 57 °F 54 °F 33 °F (1889)
Degree Days  
Heating Degree Days 0 4  
Month to date heating degree days 218  
Since 1 July heating degree days 7536  
Cooling Degree Days 2 2  
Month to date cooling degree days 37  
Year to date cooling degree days 42  
Growing Degree Days 18 (Base 50)    
Moisture  
Dew Point 59 °F    
Average Humidity 76    
Maximum Humidity 96    
Minimum Humidity 42    
Precipitation  
Precipitation 0.11 in 0.11 in 2.39 in (1965)
Month to date precipitation 3.36  
Year to date precipitation 9.58  
Snow  
Snow 0.00 in 0.00 in 0.00 in ()
Month to date snowfall T  
Since 1 July snowfall 54.4  
Snow Depth -    
Sea Level Pressure  
Sea Level Pressure 29.58 in    
Wind  
Wind Speed 13 mph (SSE)    
Max Wind Speed 33 mph    
Max Gust Speed 38 mph    
Visibility 10 miles    
Events Rain    
T = Trace of Precipitation, MM = Missing Value Source: NWS Daily Summary

Daily Weather History Graph

Daily Weather History Graph

Search for Another Location

Airport or City:

Trip Planner

Search our weather history database for the weather conditions in past years. The results will help you decide how hot, cold, wet, or windy it might be!

Date:

Astronomy

May. 31, 2013 Rise Set
Actual Time 5:26 AM CDT 8:50 PM CDT
Civil Twilight 4:50 AM CDT 9:27 PM CDT
Nautical Twilight 4:02 AM CDT 10:15 PM CDT
Astronomical Twilight 3:01 AM CDT 11:17 PM CDT
Moon 1:12 AM CDT 12:57 PM CDT
Length of Visible Light 16h 37m
Length of Day
15h 24m
Waning Gibbous, 51% of the Moon is Illuminated
May 31
Waning Gibbous
May 31
Last Quarter
Jun 8
New
Jun 16
First Quarter
Jun 23
Full

Hourly Weather History & Observations

Time (CDT) Temp. Dew Point Humidity Pressure Visibility Wind Dir Wind Speed Gust Speed Precip Events Conditions
12:15 AM 65.3 °F 63.5 °F 94% 29.59 in 10.0 mi SSE 11.5 mph - N/A   Overcast
12:35 AM 65.3 °F 63.3 °F 93% 29.60 in 10.0 mi South 11.5 mph - N/A   Overcast
12:55 AM 65.1 °F 63.3 °F 94% 29.60 in 10.0 mi SSE 10.4 mph - N/A   Overcast
1:15 AM 64.8 °F 62.8 °F 93% 29.60 in 10.0 mi SSE 12.7 mph - N/A   Mostly Cloudy
1:35 AM 64.4 °F 62.1 °F 92% 29.59 in 10.0 mi SSE 13.8 mph - N/A   Scattered Clouds
1:55 AM 63.7 °F 61.7 °F 93% 29.59 in 10.0 mi SSE 12.7 mph 17.3 mph N/A   Scattered Clouds
2:15 AM 63.5 °F 61.2 °F 92% 29.59 in 10.0 mi SSE 13.8 mph - N/A   Scattered Clouds
2:35 AM 63.7 °F 61.3 °F 92% 29.59 in 10.0 mi South 16.1 mph - N/A Rain Rain
2:55 AM 63.0 °F 60.3 °F 91% 29.59 in 10.0 mi South 11.5 mph - 0.01 in   Overcast
3:15 AM 62.2 °F 60.6 °F 94% 29.58 in 10.0 mi SSE 9.2 mph - N/A   Mostly Cloudy
3:35 AM 62.2 °F 60.4 °F 94% 29.57 in 10.0 mi SSE 10.4 mph - N/A   Scattered Clouds
3:55 AM 62.2 °F 60.3 °F 93% 29.58 in 10.0 mi SSE 8.1 mph - N/A   Scattered Clouds
4:15 AM 62.2 °F 60.3 °F 93% 29.58 in 10.0 mi SE 8.1 mph - N/A   Mostly Cloudy
4:35 AM 62.1 °F 60.3 °F 94% 29.59 in 10.0 mi SSE 9.2 mph - N/A   Scattered Clouds
4:55 AM 62.1 °F 60.3 °F 94% 29.58 in 10.0 mi SE 10.4 mph - N/A   Scattered Clouds
5:15 AM 62.1 °F 60.3 °F 94% 29.59 in 10.0 mi SE 9.2 mph - N/A   Scattered Clouds
5:35 AM 62.1 °F 60.3 °F 94% 29.60 in 10.0 mi SSE 11.5 mph 18.4 mph N/A   Scattered Clouds
5:55 AM 62.2 °F 60.3 °F 93% 29.59 in 10.0 mi SSE 10.4 mph - N/A   Scattered Clouds
6:15 AM 62.6 °F 60.3 °F 92% 29.60 in 10.0 mi SSE 12.7 mph - N/A   Mostly Cloudy
6:35 AM 62.6 °F 60.1 °F 91% 29.60 in 10.0 mi SSE 11.5 mph 16.1 mph N/A   Scattered Clouds
6:55 AM 62.8 °F 60.1 °F 91% 29.59 in 10.0 mi SE 10.4 mph - N/A   Clear
7:15 AM 63.1 °F 60.1 °F 90% 29.59 in 10.0 mi SSE 13.8 mph 17.3 mph N/A   Clear
7:35 AM 64.2 °F 60.1 °F 86% 29.58 in 10.0 mi SSE 16.1 mph 19.6 mph N/A   Clear
7:55 AM 65.1 °F 60.1 °F 84% 29.58 in 10.0 mi SSE 13.8 mph 21.9 mph N/A   Clear
8:15 AM 65.7 °F 59.9 °F 82% 29.58 in 10.0 mi SSE 17.3 mph 24.2 mph N/A   Clear
8:35 AM 66.4 °F 59.7 °F 79% 29.58 in 10.0 mi SSE 15.0 mph 20.7 mph N/A   Clear
8:55 AM 67.1 °F 60.1 °F 78% 29.59 in 10.0 mi SSE 17.3 mph 23.0 mph N/A   Clear
9:15 AM 68.0 °F 60.6 °F 77% 29.58 in 10.0 mi SSE 15.0 mph 25.3 mph N/A   Scattered Clouds
9:35 AM 68.9 °F 60.1 °F 73% 29.58 in 10.0 mi SSE 19.6 mph 24.2 mph N/A   Clear
9:55 AM 69.8 °F 59.4 °F 69% 29.59 in 10.0 mi South 19.6 mph 24.2 mph N/A   Clear
10:15 AM 70.7 °F 59.9 °F 69% 29.58 in 10.0 mi South 20.7 mph 27.6 mph N/A   Scattered Clouds
10:35 AM 71.6 °F 57.6 °F 61% 29.58 in 10.0 mi South 19.6 mph 27.6 mph N/A   Scattered Clouds
10:55 AM 72.5 °F 58.1 °F 60% 29.58 in 10.0 mi South 17.3 mph 26.5 mph N/A   Clear
11:15 AM 72.9 °F 58.1 °F 60% 29.58 in 10.0 mi SSE 21.9 mph 27.6 mph N/A   Clear
11:35 AM 74.3 °F 58.5 °F 58% 29.58 in 10.0 mi SSE 23.0 mph 26.5 mph N/A   Clear
11:55 AM 74.7 °F 59.2 °F 58% 29.58 in 10.0 mi SSE 23.0 mph 31.1 mph N/A   Scattered Clouds
12:15 PM 75.9 °F 59.5 °F 57% 29.58 in 10.0 mi South 21.9 mph 26.5 mph N/A   Scattered Clouds
12:35 PM 75.4 °F 57.6 °F 54% 29.58 in 10.0 mi South 20.7 mph 31.1 mph N/A   Mostly Cloudy
12:55 PM 75.6 °F 58.5 °F 55% 29.58 in 10.0 mi SSE 21.9 mph 31.1 mph N/A   Mostly Cloudy
1:15 PM 75.9 °F 58.8 °F 55% 29.58 in 10.0 mi South 23.0 mph 34.5 mph N/A   Mostly Cloudy
1:35 PM 76.8 °F 59.0 °F 54% 29.57 in 10.0 mi South 21.9 mph 35.7 mph N/A   Mostly Cloudy
1:55 PM 78.3 °F 58.8 °F 51% 29.56 in 10.0 mi SSE 23.0 mph 34.5 mph N/A   Scattered Clouds
2:15 PM 74.8 °F 59.4 °F 58% 29.55 in 10.0 mi SSE 24.2 mph 34.5 mph N/A   Scattered Clouds
2:35 PM 73.4 °F 56.5 °F 55% 29.56 in 10.0 mi SSE 33.4 mph 38.0 mph N/A   Mostly Cloudy
2:55 PM 73.2 °F 58.5 °F 60% 29.55 in 10.0 mi SSE 21.9 mph 36.8 mph N/A   Mostly Cloudy
3:15 PM 74.5 °F 59.4 °F 59% 29.54 in 10.0 mi SSE 20.7 mph 32.2 mph N/A   Mostly Cloudy
3:35 PM 75.2 °F 58.8 °F 57% 29.53 in 10.0 mi South 23.0 mph 33.4 mph N/A   Mostly Cloudy
3:55 PM 74.5 °F 59.2 °F 59% 29.53 in 10.0 mi South 15.0 mph 24.2 mph N/A Rain Light Rain
4:15 PM 74.8 °F 58.1 °F 56% 29.54 in 10.0 mi WSW 20.7 mph 26.5 mph N/A   Mostly Cloudy
4:35 PM 73.9 °F 55.6 °F 53% 29.54 in 10.0 mi SW 19.6 mph - N/A   Scattered Clouds
4:55 PM 76.3 °F 56.3 °F 50% 29.54 in 10.0 mi SW 17.3 mph 24.2 mph N/A   Clear
5:15 PM 76.6 °F 51.6 °F 42% 29.54 in 10.0 mi SW 24.2 mph 31.1 mph N/A   Clear
5:35 PM 75.6 °F 51.4 °F 43% 29.55 in 10.0 mi SW 19.6 mph 26.5 mph N/A   Clear
5:55 PM 75.4 °F 51.3 °F 43% 29.56 in 10.0 mi SW 15.0 mph 26.5 mph N/A   Mostly Cloudy
6:15 PM 73.4 °F 52.7 °F 48% 29.57 in 10.0 mi SW 15.0 mph 21.9 mph N/A   Mostly Cloudy
6:35 PM 72.5 °F 54.0 °F 52% 29.57 in 10.0 mi WSW 6.9 mph - N/A   Scattered Clouds
6:55 PM 71.8 °F 54.3 °F 54% 29.57 in 10.0 mi SW 5.8 mph - N/A   Scattered Clouds
7:15 PM 64.9 °F 54.9 °F 70% 29.60 in 5.0 mi South 20.7 mph 27.6 mph 0.04 in Rain Heavy Rain
7:35 PM 62.2 °F 57.2 °F 84% 29.61 in 10.0 mi South 11.5 mph - 0.06 in Rain Light Rain
7:55 PM 61.2 °F 56.7 °F 85% 29.60 in 7.0 mi SW 5.8 mph 11.5 mph 0.10 in Rain Light Rain
8:15 PM 62.2 °F 57.2 °F 84% 29.60 in 10.0 mi Calm Calm - N/A   Scattered Clouds
8:35 PM 61.2 °F 58.1 °F 90% 29.59 in 10.0 mi East 5.8 mph - N/A   Mostly Cloudy
8:55 PM 61.0 °F 58.1 °F 90% 29.59 in 10.0 mi ESE 5.8 mph - N/A   Overcast
9:15 PM 60.4 °F 58.3 °F 93% 29.59 in 10.0 mi ESE 5.8 mph - N/A   Overcast
9:35 PM 60.1 °F 57.6 °F 91% 29.58 in 10.0 mi ESE 5.8 mph - N/A   Overcast
9:55 PM 58.3 °F 56.5 °F 94% 29.58 in 10.0 mi ENE 3.5 mph - N/A   Scattered Clouds
10:15 PM 58.5 °F 56.5 °F 93% 29.59 in 10.0 mi Calm Calm - N/A   Clear
10:35 PM 57.4 °F 56.1 °F 96% 29.59 in 10.0 mi ESE 8.1 mph - N/A   Clear
10:55 PM 58.6 °F 57.6 °F 96% 29.60 in 10.0 mi ESE 5.8 mph - N/A   Mostly Cloudy
11:15 PM 59.2 °F 57.6 °F 94% 29.61 in 10.0 mi Calm Calm - N/A   Overcast
11:35 PM 59.0 °F 57.4 °F 94% 29.60 in 10.0 mi Calm Calm - N/A   Overcast
11:55 PM 58.3 °F 56.7 °F 94% 29.60 in 10.0 mi East 5.8 mph - N/A   Mostly Cloudy